Lexington Weather

Lexington, Massachusetts, USA

66°F
9/23/2021 3:50am 
  • Lexington Conditions: Few Clouds
  • Temperature: 66.4°F / 19.1°CWarmer 0.2°F than last hour.
  • Dew Point: 65.1°FIncreased 0.2°Fsince last hour.
  • Relative Humidity: 96
  • Wind: Calm, 10-min avg: Calm, gust: 3 mph
  • Barometer: 30.04 in Steady
  • Visibility: 10 miles
  • Rain Today: 0.00 in
  •   

Regional Weather Roundup
for Boston / Norton, MA

        
000
ASUS41 KBOX 200404
RWRBOX

REGIONAL WEATHER ROUNDUP
NATIONAL WEATHER SERVICE BOSTON/NORTON MA
1200 AM EDT MON SEP 20 2021

NOTE:  "FAIR" INDICATES FEW OR NO CLOUDS BELOW 12,000 FEET WITH NO 
SIGNIFICANT WEATHER AND/OR OBSTRUCTIONS TO VISIBILITY.

MAZALL-200500-
EASTERN MASSACHUSETTS
  
CITY           SKY/WX    TMP DP  RH WIND       PRES   REMARKS
BOSTON         CLEAR     63  54  72 SW3       30.26R                  
BEVERLY        CLEAR     55  54  96 CALM      30.25R                  
LAWRENCE       CLEAR     56  54  93 CALM      30.27R                  
BEDFORD        CLEAR     54  54 100 CALM      30.25R                  
BLUE HILL      NOT AVBL                                               
NORWOOD        CLEAR     51  49  92 SW3       30.25R                  
MARSHFIELD     CLEAR     54  52  94 CALM      30.25R                  
PLYMOUTH       CLEAR     52  51  97 CALM      30.25R                  
TAUNTON        CLEAR     50  48  93 CALM      30.25R                  
NEW BEDFORD    CLEAR     51  50  96 CALM      30.25R                  
$$

MAZALL-200500-
CAPE COD AND THE ISLANDS
  
CITY           SKY/WX    TMP DP  RH WIND       PRES   REMARKS
FALMOUTH       CLEAR     52  52 100 CALM      30.25R                  
HYANNIS        CLEAR     50  49  96 CALM      30.24R                  
CHATHAM        CLEAR     54  52  93 NW5       30.25R                  
PROVINCETOWN   CLEAR     51  50  96 CALM      30.26R                  
NANTUCKET      CLEAR     59  51  75 NE3       30.24R                  
MARTHAS VNYRD  CLEAR     49  46  90 CALM      30.25R                  
$$
 
MAZALL-200500-
CENTRAL AND WESTERN MASSACHUSETTS
  
CITY           SKY/WX    TMP DP  RH WIND       PRES   REMARKS
WORCESTER      CLEAR     62  48  60 N5        30.27R                  
FITCHBURG      CLEAR     54  51  90 CALM      30.26R                  
ORANGE         CLEAR     52  51  97 N3        30.28R                  
SPRINGFIELD    CLEAR     52  52  99 CALM      30.25R                  
WESTFIELD      CLEAR     54  54 100 CALM      30.26R                  
NORTH ADAMS    CLEAR     51  49  92 CALM      30.28S                  
PITTSFIELD     CLEAR     50  46  86 CALM      30.27R                  
$$
 
RIZALL-200500-
RHODE ISLAND
  
CITY           SKY/WX    TMP DP  RH WIND       PRES   REMARKS
PROVIDENCE     CLEAR     59  56  89 W5        30.26R                  
NEWPORT        CLEAR     59  52  77 SE3       30.25R                  
SMITHFIELD     CLEAR     53  51  93 CALM      30.27R                  
WESTERLY       CLEAR     54  54 100 CALM      30.26R                  
$$
 
CTZALL-200500-
CONNECTICUT
  
CITY           SKY/WX    TMP DP  RH WIND       PRES   REMARKS
BRADLEY INTL   CLEAR     57  54  89 N3        30.25R                  
HARTFORD       CLEAR     59  56  89 CALM      30.25R                  
BRIDGEPORT     CLEAR     64  56  75 NE5       30.25R                  
DANBURY        CLEAR     56  52  86 SW3       30.27R                  
GROTON         CLEAR     58  56  93 N3        30.25R                  
NEW HAVEN      CLEAR     59  54  83 N3        30.25R                  
CHESTER        FAIR      57  57 100 CALM      30.26R                  
MERIDEN        CLEAR     55  52  89 CALM      30.25R                  
WILLIMANTIC    CLEAR     55  54  96 CALM      30.26R                  
OXFORD         CLEAR     60  53  77 NE6       30.27R                  
$$

MEZ002-015-021-024-NHZ003-005-008-011-012-014-VTZ005-008-200500-
NORTHERN NEW ENGLAND
  
CITY           SKY/WX    TMP DP  RH WIND       PRES   REMARKS
PORTLAND ME    CLEAR     54  52  93 W3        30.27R                  
BANGOR ME      CLEAR     51  46  83 CALM      30.26R                  
CONCORD NH     CLEAR     52  49  89 CALM      30.26R                  
MANCHESTER NH  CLEAR     59  53  80 CALM      30.24R                  
NASHUA NH      CLEAR     54  54 100 NW3       30.26R                  
PORTSMOUTH NH  CLEAR     55  53  93 CALM      30.26R                  
JAFFREY NH     CLEAR     52  52 100 CALM      30.27S                  
KEENE NH       CLEAR     51  51 100 CALM      30.28R                  
BURLINGTON VT  CLEAR     52  50  93 E5        30.28R                  
MT. WASHINGTON CLEAR     45   5  19 NW10        N/A                   
$$

NYZ052-076-200500-
EASTERN NEW YORK
  
CITY           SKY/WX    TMP DP  RH WIND       PRES   REMARKS
ALBANY         PTCLDY    52  52 100 CALM      30.26S                  
NEW YORK CITY  CLEAR     70  51  51 NE3       30.24R                  
$$
 
ANZALL-200500-
MARINE OBSERVATIONS
  
STATION/POSITION TIME  TEMP    WIND        PRES    VSBY  WAVE
                       AIR SEA DIR/SP/G                  HT/PER
                 (UTC) (F)     (DEG/KT/KT) (MB)    (MI)  (FT/S)
BOSTON BUOY      0340      66  190/  4/  4 1024.4R
BUZZARDS BAY     0300           60/ 13/ 13 1024.8R
NANTUCKET SOUND  0340   67 72   80/  8/ 10 1023.8R
MASS BAY-STELLWA 0304   65     170/  2/  4 1023.3R  1 7/8  4/11
ISLE OF SHOALS   0300   64     260/  4/  4 1023.6R
S OF BLOCK IS    0326      71                N/A           3/10
$$

......................KEY.........................
  SKY/WX - SKY CONDITION/PRESENT WEATHER
  TMP    - TEMPERATURE IN FAHRENHEIT
  DWPT   - DEWPOINT IN FAHRENHEIT
  RH     - RELATIVE HUMIDITY IN PERCENT
  WIND   - DIRECTION AND SPEED IN MPH
  PRES   - MEAN SEA LEVEL PRESSURE IN INCHES OF HG
  WCI    - WIND CHILL INDEX
  VSB    - VISIBILITY IN MILES
  HX     - HEAT INDEX
  TC     - TEMPERATURE IN CELSIUS
  VRB    - VARIABLE WIND DIRECTION
  N/A    - NOT AVAILABLE
  
      

Other recent Regional Weather Roundups

Thu Sep 23, 3:04am

Thu Sep 23, 2:04am

Thu Sep 23, 1:04am

Thu Sep 23, 12:04am

Wed Sep 22, 11:04pm

Wed Sep 22, 10:04pm

Wed Sep 22, 9:04pm

Wed Sep 22, 8:04pm

Wed Sep 22, 7:04pm

Wed Sep 22, 6:04pm

Wed Sep 22, 5:04pm

Wed Sep 22, 4:04pm

Wed Sep 22, 3:04pm

Wed Sep 22, 2:04pm

Wed Sep 22, 1:04pm

Wed Sep 22, 12:05pm

Wed Sep 22, 11:04am

Wed Sep 22, 10:04am

Wed Sep 22, 9:04am

Wed Sep 22, 8:04am

Wed Sep 22, 7:04am

Wed Sep 22, 6:04am

Wed Sep 22, 5:04am

Wed Sep 22, 4:04am

Wed Sep 22, 3:04am

Wed Sep 22, 2:04am

Wed Sep 22, 1:04am

Wed Sep 22, 12:04am

Tue Sep 21, 11:04pm

Tue Sep 21, 10:04pm

Tue Sep 21, 9:04pm

Tue Sep 21, 8:04pm

Tue Sep 21, 7:04pm

Tue Sep 21, 6:04pm

Tue Sep 21, 5:04pm

Tue Sep 21, 4:04pm

Tue Sep 21, 3:04pm

Tue Sep 21, 2:04pm

Tue Sep 21, 1:04pm

Tue Sep 21, 12:04pm

Tue Sep 21, 11:04am

Tue Sep 21, 10:04am

Tue Sep 21, 9:04am

Tue Sep 21, 8:04am

Tue Sep 21, 7:04am

Tue Sep 21, 6:04am

Tue Sep 21, 5:04am

Tue Sep 21, 4:04am

Tue Sep 21, 3:04am

Tue Sep 21, 2:04am

Tue Sep 21, 1:04am

Tue Sep 21, 12:04am

Mon Sep 20, 11:04pm

Mon Sep 20, 10:04pm

Mon Sep 20, 9:04pm

Mon Sep 20, 8:04pm

Mon Sep 20, 7:04pm

Mon Sep 20, 6:04pm

Mon Sep 20, 5:04pm

Mon Sep 20, 4:04pm

Mon Sep 20, 3:04pm

Mon Sep 20, 2:04pm

Mon Sep 20, 1:04pm

Mon Sep 20, 12:04pm

Mon Sep 20, 11:04am

Mon Sep 20, 10:04am

Mon Sep 20, 9:04am

Mon Sep 20, 7:04am

Mon Sep 20, 6:04am

Mon Sep 20, 5:04am

Mon Sep 20, 4:04am

Mon Sep 20, 3:04am

Mon Sep 20, 2:04am

Mon Sep 20, 1:04am

Sun Sep 19, 11:04pm

Sun Sep 19, 10:04pm

Sun Sep 19, 9:04pm

Sun Sep 19, 8:04pm

Sun Sep 19, 7:04pm

Sun Sep 19, 6:04pm

Sun Sep 19, 5:04pm

Sun Sep 19, 4:04pm

Sun Sep 19, 3:04pm

Sun Sep 19, 2:05pm

Sun Sep 19, 1:04pm

Sun Sep 19, 12:04pm

Sun Sep 19, 11:04am

Sun Sep 19, 10:05am

Sun Sep 19, 9:04am

Sun Sep 19, 8:04am

Sun Sep 19, 7:04am

Sun Sep 19, 6:04am

Sun Sep 19, 5:04am

Sun Sep 19, 4:04am

Sun Sep 19, 3:04am

Sun Sep 19, 2:04am

Sun Sep 19, 1:04am

Sun Sep 19, 12:04am

Sat Sep 18, 11:05pm

Sat Sep 18, 10:04pm

Sat Sep 18, 9:04pm

Sat Sep 18, 8:04pm

Sat Sep 18, 7:04pm

Sat Sep 18, 6:04pm

Sat Sep 18, 5:04pm

Sat Sep 18, 4:04pm

Sat Sep 18, 3:04pm

Sat Sep 18, 2:04pm

Sat Sep 18, 1:04pm

Sat Sep 18, 12:04pm

Sat Sep 18, 11:04am

Sat Sep 18, 10:04am

Sat Sep 18, 9:04am

Sat Sep 18, 8:04am

Sat Sep 18, 7:04am

Sat Sep 18, 6:04am

Sat Sep 18, 5:04am

Sat Sep 18, 4:04am

Sat Sep 18, 3:04am

Sat Sep 18, 2:04am

Sat Sep 18, 1:04am

Sat Sep 18, 12:04am

Fri Sep 17, 11:04pm

Fri Sep 17, 10:04pm

Fri Sep 17, 9:04pm

Fri Sep 17, 8:04pm

Fri Sep 17, 7:04pm

Fri Sep 17, 6:04pm

Fri Sep 17, 5:04pm

Fri Sep 17, 4:04pm

Fri Sep 17, 3:04pm

Fri Sep 17, 2:04pm

Fri Sep 17, 1:04pm

Fri Sep 17, 12:05pm

Fri Sep 17, 11:04am

Fri Sep 17, 10:04am

Fri Sep 17, 9:04am

Fri Sep 17, 8:04am

Fri Sep 17, 7:04am

Fri Sep 17, 6:04am

Fri Sep 17, 5:04am

Fri Sep 17, 4:04am

Fri Sep 17, 3:04am

Fri Sep 17, 2:04am

Fri Sep 17, 1:04am

Fri Sep 17, 12:04am

Thu Sep 16, 11:04pm

Thu Sep 16, 10:04pm

Thu Sep 16, 9:04pm

Thu Sep 16, 8:04pm

Thu Sep 16, 7:04pm

Thu Sep 16, 6:04pm

Thu Sep 16, 5:04pm

Thu Sep 16, 4:04pm

Thu Sep 16, 3:04pm

Thu Sep 16, 2:04pm

Thu Sep 16, 1:05pm

Thu Sep 16, 12:04pm

Thu Sep 16, 11:05am

Thu Sep 16, 10:05am

Thu Sep 16, 9:04am

Thu Sep 16, 8:04am

Thu Sep 16, 7:04am

Thu Sep 16, 6:04am

Thu Sep 16, 5:04am

Thu Sep 16, 4:04am

Meta data:

ID: 9a68c2b2-a1a6-4dd3-882b-a570b22c42e8
Link: https://api.weather.gov/products/9a68c2b2-a1a6-4dd3-882b-a570b22c42e8